When you browse on this site, cookies collect data to enhance your experience and personalize the content and advertising you see.
Visit our Privacy Policy to learn more. By continuing to use the site, you agree to this use of cookies and data.
  • în România
  • Lista ţărilor
  • Pe 7 zile
  • Temperatura apei
  • Hartă satelitară
  • Meteo pe hartă
  • Widget-uri
  • user-avatar
    Intrare

    Meteo pe oră la Orlando

    Astăzi, 10 Decembrie, Luni

    Timp Temperatura Precipitaţii Vânt Presiune Umiditate
    00:00 +19°C° 0 mm 4 m/s 757 mmHg 73%
    01:00 +18°C° 0 mm 4 m/s 757 mmHg 72%
    02:00 +18°C° 0 mm 4 m/s 758 mmHg 72%
    03:00 +17°C° 0 mm 4 m/s 758 mmHg 72%
    04:00 +17°C° 0 mm 4 m/s 758 mmHg 72%
    05:00 +15°C° 0 mm 4 m/s 758 mmHg 73%
    06:00 +14°C° 0 mm 4 m/s 758 mmHg 73%
    07:00 +14°C° 0 mm 3 m/s 759 mmHg 74%
    08:00 +14°C° 0 mm 4 m/s 759 mmHg 72%
    09:00 +14°C° 0 mm 4 m/s 760 mmHg 69%
    10:00 +14°C° 0 mm 4 m/s 761 mmHg 67%
    11:00 +14°C° 0 mm 4 m/s 761 mmHg 64%
    12:00 +15°C° 0 mm 4 m/s 761 mmHg 61%
    13:00 +15°C° 0 mm 4 m/s 760 mmHg 59%
    14:00 +15°C° 0 mm 4 m/s 760 mmHg 60%
    15:00 +15°C° 0 mm 5 m/s 760 mmHg 60%
    16:00 +14°C° 0 mm 5 m/s 760 mmHg 61%
    17:00 +13°C° 0 mm 4 m/s 761 mmHg 63%
    18:00 +12°C° 0 mm 4 m/s 761 mmHg 65%
    19:00 +12°C° 0 mm 3 m/s 762 mmHg 67%
    20:00 +11°C° 0 mm 3 m/s 762 mmHg 67%
    21:00 +10°C° 0 mm 3 m/s 762 mmHg 67%
    22:00 +10°C° 0 mm 3 m/s 763 mmHg 68%
    23:00 +9°C° 0 mm 3 m/s 763 mmHg 68%

    Mâine, 11 Decembrie, Marţi

    Timp Temperatura Precipitaţii Vânt Presiune Umiditate
    00:00 +9°C° 0 mm 3 m/s 763 mmHg 68%
    01:00 +8°C° 0 mm 3 m/s 763 mmHg 68%
    02:00 +8°C° 0 mm 3 m/s 763 mmHg 68%
    03:00 +8°C° 0 mm 3 m/s 763 mmHg 68%
    04:00 +8°C° 0 mm 3 m/s 763 mmHg 69%
    05:00 +7°C° 0 mm 3 m/s 764 mmHg 69%
    06:00 +7°C° 0 mm 3 m/s 764 mmHg 69%
    07:00 +7°C° 0 mm 3 m/s 765 mmHg 70%
    08:00 +7°C° 0 mm 4 m/s 765 mmHg 66%
    09:00 +8°C° 0 mm 4 m/s 766 mmHg 63%
    10:00 +11°C° 0 mm 4 m/s 766 mmHg 59%
    11:00 +12°C° 0 mm 4 m/s 766 mmHg 56%
    12:00 +13°C° 0 mm 4 m/s 765 mmHg 53%
    13:00 +14°C° 0 mm 4 m/s 765 mmHg 50%
    14:00 +14°C° 0 mm 4 m/s 765 mmHg 51%
    15:00 +14°C° 0 mm 3 m/s 765 mmHg 52%
    16:00 +14°C° 0 mm 3 m/s 764 mmHg 52%
    17:00 +13°C° 0 mm 3 m/s 765 mmHg 56%
    18:00 +13°C° 0 mm 2 m/s 765 mmHg 60%
    19:00 +12°C° 0 mm 2 m/s 766 mmHg 64%
    20:00 +12°C° 0 mm 2 m/s 766 mmHg 65%
    21:00 +10°C° 0 mm 2 m/s 766 mmHg 67%
    22:00 +10°C° 0 mm 2 m/s 767 mmHg 68%
    23:00 +10°C° 0 mm 2 m/s 766 mmHg 68%

    Poimâine, 12 Decembrie, Miercuri

    Timp Temperatura Precipitaţii Vânt Presiune Umiditate
    00:00 +9°C° 0 mm 2 m/s 766 mmHg 68%
    01:00 +9°C° 0 mm 2 m/s 766 mmHg 68%
    02:00 +9°C° 0 mm 2 m/s 766 mmHg 67%
    03:00 +9°C° 0 mm 2 m/s 765 mmHg 66%
    04:00 +8°C° 0 mm 2 m/s 765 mmHg 65%
    05:00 +8°C° 0 mm 2 m/s 765 mmHg 66%
    06:00 +8°C° 0 mm 2 m/s 766 mmHg 66%
    07:00 +8°C° 0 mm 2 m/s 766 mmHg 66%
    08:00 +10°C° 0 mm 2 m/s 766 mmHg 63%
    09:00 +13°C° 0 mm 2 m/s 766 mmHg 60%
    10:00 +15°C° 0 mm 2 m/s 767 mmHg 57%
    11:00 +17°C° 0 mm 2 m/s 766 mmHg 54%
    12:00 +19°C° 0 mm 2 m/s 766 mmHg 51%
    13:00 +21°C° 0 mm 2 m/s 765 mmHg 48%
    14:00 +21°C° 0 mm 3 m/s 765 mmHg 50%
    15:00 +20°C° 0 mm 3 m/s 765 mmHg 51%
    16:00 +20°C° 0 mm 3 m/s 764 mmHg 53%
    17:00 +19°C° 0 mm 3 m/s 764 mmHg 57%
    18:00 +18°C° 0 mm 3 m/s 765 mmHg 61%
    19:00 +17°C° 0 mm 2 m/s 765 mmHg 65%
    20:00 +16°C° 0 mm 2 m/s 765 mmHg 66%
    21:00 +16°C° 0 mm 2 m/s 765 mmHg 68%
    22:00 +16°C° 0 mm 2 m/s 765 mmHg 69%
    23:00 +16°C° 0 mm 2 m/s 765 mmHg 70%

    13 Decembrie, Joi

    Timp Temperatura Precipitaţii Vânt Presiune Umiditate
    00:00 +16°C° 0 mm 2 m/s 764 mmHg 70%
    01:00 +17°C° 0 mm 2 m/s 764 mmHg 71%
    02:00 +17°C° 0 mm 2 m/s 763 mmHg 71%
    03:00 +17°C° 0 mm 2 m/s 763 mmHg 72%
    04:00 +17°C° 0 mm 2 m/s 763 mmHg 73%
    05:00 +18°C° 0 mm 2 m/s 763 mmHg 74%
    06:00 +18°C° 0 mm 2 m/s 763 mmHg 75%
    07:00 +18°C° 0 mm 2 m/s 764 mmHg 76%
    08:00 +19°C° 0.3 mm 2 m/s 764 mmHg 77%
    09:00 +19°C° 0.3 mm 2 m/s 764 mmHg 78%
    10:00 +19°C° 0.3 mm 2 m/s 764 mmHg 80%
    11:00 +19°C° 0.6 mm 2 m/s 764 mmHg 82%
    12:00 +19°C° 0.6 mm 2 m/s 763 mmHg 84%
    13:00 +19°C° 0.6 mm 2 m/s 763 mmHg 86%
    14:00 +19°C° 0.5 mm 2 m/s 762 mmHg 86%
    15:00 +19°C° 0.5 mm 2 m/s 762 mmHg 86%
    16:00 +20°C° 0.5 mm 3 m/s 761 mmHg 86%
    17:00 +19°C° 0.1 mm 3 m/s 762 mmHg 87%
    18:00 +19°C° 0.1 mm 3 m/s 762 mmHg 88%
    19:00 +19°C° 0.1 mm 3 m/s 762 mmHg 88%
    20:00 +19°C° 0.1 mm 3 m/s 762 mmHg 89%
    21:00 +19°C° 0.1 mm 3 m/s 761 mmHg 90%
    22:00 +19°C° 0.1 mm 3 m/s 761 mmHg 90%
    23:00 +19°C° 0 mm 3 m/s 761 mmHg 91%

    14 Decembrie, Vineri

    Timp Temperatura Precipitaţii Vânt Presiune Umiditate
    00:00 +19°C° 0 mm 3 m/s 760 mmHg 91%
    01:00 +19°C° 0 mm 3 m/s 759 mmHg 91%
    02:00 +19°C° 0 mm 3 m/s 759 mmHg 92%
    03:00 +19°C° 0 mm 3 m/s 759 mmHg 92%
    04:00 +19°C° 0 mm 3 m/s 758 mmHg 93%
    05:00 +19°C° 0.2 mm 3 m/s 758 mmHg 94%
    06:00 +19°C° 0.2 mm 3 m/s 758 mmHg 95%
    07:00 +19°C° 0.2 mm 3 m/s 758 mmHg 96%
    08:00 +21°C° 0.1 mm 4 m/s 758 mmHg 90%
    09:00 +22°C° 0.1 mm 5 m/s 758 mmHg 84%
    10:00 +24°C° 0.1 mm 7 m/s 758 mmHg 78%
    11:00 +26°C° 0.8 mm 7 m/s 757 mmHg 74%
    12:00 +26°C° 0.8 mm 7 m/s 757 mmHg 70%
    13:00 +27°C° 0.8 mm 7 m/s 756 mmHg 66%
    14:00 +26°C° 0.5 mm 7 m/s 755 mmHg 70%
    15:00 +24°C° 0.5 mm 6 m/s 755 mmHg 73%
    16:00 +23°C° 0.5 mm 6 m/s 755 mmHg 76%
    17:00 +22°C° 0.2 mm 5 m/s 755 mmHg 77%
    18:00 +21°C° 0.2 mm 5 m/s 756 mmHg 77%
    19:00 +20°C° 0.2 mm 4 m/s 756 mmHg 78%
    20:00 +19°C° 0 mm 4 m/s 756 mmHg 77%
    21:00 +18°C° 0 mm 4 m/s 756 mmHg 76%
    22:00 +17°C° 0 mm 3 m/s 757 mmHg 76%
    23:00 +17°C° 0 mm 3 m/s 756 mmHg 76%

    15 Decembrie, Sâmbătă

    Timp Temperatura Precipitaţii Vânt Presiune Umiditate
    00:00 +17°C° 0 mm 3 m/s 756 mmHg 77%
    01:00 +16°C° 0 mm 3 m/s 756 mmHg 78%
    02:00 +16°C° 0 mm 3 m/s 756 mmHg 79%
    03:00 +16°C° 0 mm 3 m/s 756 mmHg 79%
    04:00 +15°C° 0 mm 4 m/s 756 mmHg 79%
    05:00 +15°C° 0.1 mm 4 m/s 756 mmHg 78%
    06:00 +15°C° 0.1 mm 4 m/s 756 mmHg 77%
    07:00 +17°C° 0.1 mm 4 m/s 757 mmHg 76%
    08:00 +16°C° 0.1 mm 5 m/s 757 mmHg 72%
    09:00 +17°C° 0.1 mm 6 m/s 758 mmHg 67%
    10:00 +18°C° 0.1 mm 7 m/s 758 mmHg 63%
    11:00 +17°C° 0.1 mm 6 m/s 758 mmHg 64%
    12:00 +17°C° 0.1 mm 6 m/s 757 mmHg 65%
    13:00 +17°C° 0.1 mm 6 m/s 757 mmHg 65%
    14:00 +17°C° 0 mm 6 m/s 757 mmHg 65%
    15:00 +17°C° 0 mm 6 m/s 757 mmHg 64%
    16:00 +17°C° 0 mm 6 m/s 757 mmHg 63%
    17:00 +16°C° 0 mm 5 m/s 758 mmHg 64%
    18:00 +15°C° 0 mm 4 m/s 758 mmHg 65%
    19:00 +14°C° 0 mm 4 m/s 759 mmHg 67%
    20:00 +14°C° 0 mm 3 m/s 759 mmHg 68%
    21:00 +13°C° 0 mm 3 m/s 760 mmHg 70%
    22:00 +13°C° 0 mm 2 m/s 760 mmHg 71%
    23:00 +13°C° 0 mm 2 m/s 760 mmHg 71%
    Arată mai mult